Tracking 19717 objects as of 24-Jun-2019
HD Live streaming from Space Station
objects crossing your sky now

COSMOS 397 DEB

Track COSMOS 397 DEB now!
10-day predictions


NORAD ID: 5017
Int'l Code: 1971-015L
Perigee: 557.0 km
Apogee: 1,707.8 km
Inclination: 65.7 °
Period: 107.8 minutes
Semi major axis: 7503 km
RCS: 0.3524 m2 (medium)
Launch date: February 25, 1971
Source: Commonwealth of Independent States (former USSR) (CIS)
Launch site: TYURATAM MISSILE AND SPACE COMPLEX (TTMTR)

Note: This is SATELLITE DEBRIS
aabbcc
Your satellite tracking list
Your tracking list is empty




NASA's NSSDC Master Catalog

Two Line Element Set (TLE):
1  5017U 71015L   19174.87088101 +.00000307 +00000-0 +13834-3 0  9994
2  5017 065.7128 350.4151 0766857 186.0970 173.0316 13.35713279297913
Source of the keplerian elements: AFSPC